When you browse on this site, cookies collect data to enhance your experience and personalize the content and advertising you see.
Visit our Privacy Policy to learn more. By continuing to use the site, you agree to this use of cookies and data.
  • en Suisse
  • Liste des pays
  • À 7 jours
  • Température de l'eau
  • Carte satellitaire
  • Carte météo
  • Widgets météo
  • user-avatar
    Se connecter

    Météo par heure à Kanye

    Ce jour, 24 Janvier, Jeudi

    Heure Température Précipitation Vent Pression Humidité
    00:00 +28°C° 0 mm 1 m/s 649 mmHg 28%
    01:00 +28°C° 0 mm 1 m/s 649 mmHg 28%
    02:00 +28°C° 0 mm 1 m/s 649 mmHg 27%
    03:00 +27°C° 0 mm 1 m/s 649 mmHg 28%
    04:00 +26°C° 0 mm 1 m/s 649 mmHg 29%
    05:00 +25°C° 0 mm 2 m/s 649 mmHg 30%
    06:00 +27°C° 0 mm 2 m/s 650 mmHg 27%
    07:00 +28°C° 0 mm 3 m/s 650 mmHg 25%
    08:00 +30°C° 0 mm 4 m/s 651 mmHg 22%
    09:00 +32°C° 0 mm 4 m/s 651 mmHg 20%
    10:00 +34°C° 0 mm 3 m/s 652 mmHg 19%
    11:00 +36°C° 0 mm 3 m/s 652 mmHg 17%
    12:00 +37°C° 0 mm 3 m/s 652 mmHg 16%
    13:00 +38°C° 0 mm 2 m/s 652 mmHg 14%
    14:00 +40°C° 0 mm 1 m/s 652 mmHg 12%
    15:00 +39°C° 0 mm 1 m/s 651 mmHg 12%
    16:00 +39°C° 0 mm 2 m/s 650 mmHg 12%
    17:00 +38°C° 0 mm 2 m/s 650 mmHg 12%
    18:00 +35°C° 0 mm 1 m/s 649 mmHg 15%
    19:00 +33°C° 0 mm 1 m/s 649 mmHg 17%
    20:00 +28°C° 0 mm 0 m/s 648 mmHg 20%
    21:00 +29°C° 0 mm 0 m/s 649 mmHg 21%
    22:00 +29°C° 0 mm 0 m/s 649 mmHg 21%
    23:00 +31°C° 0 mm 1 m/s 650 mmHg 22%

    Demain, 25 Janvier, Vendredi

    Heure Température Précipitation Vent Pression Humidité
    00:00 +30°C° 0 mm 1 m/s 650 mmHg 23%
    01:00 +30°C° 0 mm 2 m/s 650 mmHg 24%
    02:00 +29°C° 0 mm 3 m/s 650 mmHg 25%
    03:00 +28°C° 0 mm 3 m/s 650 mmHg 32%
    04:00 +27°C° 0 mm 4 m/s 650 mmHg 38%
    05:00 +26°C° 0 mm 5 m/s 650 mmHg 45%
    06:00 +26°C° 0 mm 6 m/s 651 mmHg 43%
    07:00 +27°C° 0 mm 7 m/s 651 mmHg 42%
    08:00 +27°C° 0 mm 7 m/s 652 mmHg 40%
    09:00 +29°C° 0 mm 7 m/s 652 mmHg 36%
    10:00 +32°C° 0 mm 7 m/s 653 mmHg 32%
    11:00 +34°C° 0 mm 7 m/s 653 mmHg 29%
    12:00 +35°C° 0 mm 7 m/s 653 mmHg 25%
    13:00 +38°C° 0 mm 6 m/s 652 mmHg 21%
    14:00 +40°C° 0 mm 5 m/s 652 mmHg 17%
    15:00 +38°C° 0 mm 4 m/s 652 mmHg 18%
    16:00 +37°C° 0 mm 3 m/s 651 mmHg 18%
    17:00 +37°C° 0 mm 2 m/s 650 mmHg 19%
    18:00 +35°C° 0 mm 2 m/s 650 mmHg 23%
    19:00 +31°C° 0 mm 2 m/s 650 mmHg 27%
    20:00 +29°C° 0 mm 2 m/s 650 mmHg 31%
    21:00 +29°C° 0 mm 3 m/s 650 mmHg 37%
    22:00 +28°C° 0 mm 3 m/s 650 mmHg 43%
    23:00 +27°C° 0 mm 4 m/s 651 mmHg 49%

    Après-demain, 26 Janvier, Samedi

    Heure Température Précipitation Vent Pression Humidité
    00:00 +27°C° 0 mm 4 m/s 650 mmHg 53%
    01:00 +26°C° 0 mm 5 m/s 650 mmHg 56%
    02:00 +25°C° 0 mm 5 m/s 650 mmHg 60%
    03:00 +25°C° 0 mm 5 m/s 650 mmHg 57%
    04:00 +24°C° 0 mm 6 m/s 650 mmHg 55%
    05:00 +24°C° 0 mm 6 m/s 650 mmHg 52%
    06:00 +24°C° 0 mm 6 m/s 651 mmHg 53%
    07:00 +24°C° 0 mm 7 m/s 651 mmHg 54%
    08:00 +24°C° 0 mm 7 m/s 651 mmHg 54%
    09:00 +27°C° 0 mm 7 m/s 652 mmHg 47%
    10:00 +30°C° 0 mm 7 m/s 653 mmHg 40%
    11:00 +34°C° 0 mm 6 m/s 653 mmHg 33%
    12:00 +34°C° 0 mm 6 m/s 653 mmHg 30%
    13:00 +35°C° 0 mm 6 m/s 652 mmHg 28%
    14:00 +36°C° 0 mm 5 m/s 652 mmHg 25%
    15:00 +36°C° 0 mm 5 m/s 651 mmHg 25%
    16:00 +36°C° 0 mm 5 m/s 651 mmHg 25%
    17:00 +36°C° 0 mm 5 m/s 650 mmHg 25%
    18:00 +33°C° 1.1 mm 5 m/s 650 mmHg 32%
    19:00 +30°C° 1.1 mm 5 m/s 650 mmHg 39%
    20:00 +27°C° 1.1 mm 5 m/s 649 mmHg 46%
    21:00 +26°C° 0.1 mm 5 m/s 649 mmHg 52%
    22:00 +25°C° 0.1 mm 5 m/s 650 mmHg 58%
    23:00 +23°C° 0.1 mm 5 m/s 650 mmHg 64%

    27 Janvier, Dimanche

    Heure Température Précipitation Vent Pression Humidité
    00:00 +23°C° 0 mm 4 m/s 650 mmHg 66%
    01:00 +22°C° 0 mm 4 m/s 650 mmHg 68%
    02:00 +22°C° 0 mm 4 m/s 650 mmHg 71%
    03:00 +21°C° 0.4 mm 5 m/s 650 mmHg 75%
    04:00 +21°C° 0.4 mm 6 m/s 650 mmHg 80%
    05:00 +21°C° 0.4 mm 7 m/s 650 mmHg 84%
    06:00 +21°C° 0 mm 8 m/s 651 mmHg 82%
    07:00 +21°C° 0 mm 8 m/s 651 mmHg 80%
    08:00 +21°C° 0 mm 9 m/s 652 mmHg 78%
    09:00 +23°C° 0 mm 8 m/s 652 mmHg 71%
    10:00 +24°C° 0 mm 8 m/s 652 mmHg 64%
    11:00 +27°C° 0 mm 8 m/s 653 mmHg 57%
    12:00 +29°C° 0 mm 7 m/s 652 mmHg 51%
    13:00 +32°C° 0 mm 7 m/s 652 mmHg 44%
    14:00 +34°C° 0 mm 6 m/s 652 mmHg 38%
    15:00 +34°C° 0 mm 6 m/s 651 mmHg 37%
    16:00 +34°C° 0 mm 5 m/s 651 mmHg 36%
    17:00 +34°C° 0 mm 5 m/s 650 mmHg 34%
    18:00 +30°C° 3.4 mm 6 m/s 649 mmHg 45%
    19:00 +28°C° 3.4 mm 6 m/s 649 mmHg 56%
    20:00 +24°C° 3.4 mm 7 m/s 648 mmHg 66%
    21:00 +23°C° 6.7 mm 8 m/s 649 mmHg 72%
    22:00 +22°C° 6.7 mm 8 m/s 649 mmHg 77%
    23:00 +21°C° 6.7 mm 9 m/s 650 mmHg 82%

    28 Janvier, Lundi

    Heure Température Précipitation Vent Pression Humidité
    00:00 +21°C° 0 mm 9 m/s 650 mmHg 83%
    01:00 +20°C° 0 mm 8 m/s 650 mmHg 84%
    02:00 +20°C° 0 mm 8 m/s 650 mmHg 84%
    03:00 +20°C° 0 mm 7 m/s 650 mmHg 85%
    04:00 +19°C° 0 mm 6 m/s 650 mmHg 85%
    05:00 +19°C° 0 mm 5 m/s 650 mmHg 86%
    06:00 +19°C° 0 mm 6 m/s 650 mmHg 84%
    07:00 +20°C° 0 mm 6 m/s 651 mmHg 83%
    08:00 +20°C° 0 mm 7 m/s 651 mmHg 81%
    09:00 +21°C° 0 mm 7 m/s 652 mmHg 77%
    10:00 +22°C° 0 mm 7 m/s 652 mmHg 73%
    11:00 +23°C° 0 mm 7 m/s 652 mmHg 68%
    12:00 +24°C° 0 mm 6 m/s 652 mmHg 62%
    13:00 +27°C° 0 mm 5 m/s 651 mmHg 56%
    14:00 +29°C° 0 mm 5 m/s 651 mmHg 50%
    15:00 +29°C° 0 mm 4 m/s 651 mmHg 50%
    16:00 +29°C° 0 mm 4 m/s 651 mmHg 49%
    17:00 +29°C° 0 mm 4 m/s 650 mmHg 48%
    18:00 +28°C° 0 mm 4 m/s 650 mmHg 52%
    19:00 +27°C° 0 mm 4 m/s 650 mmHg 56%
    20:00 +25°C° 0 mm 4 m/s 650 mmHg 61%
    21:00 +25°C° 0 mm 4 m/s 650 mmHg 61%
    22:00 +23°C° 0 mm 4 m/s 650 mmHg 62%
    23:00 +23°C° 0 mm 4 m/s 651 mmHg 62%

    29 Janvier, Mardi

    Heure Température Précipitation Vent Pression Humidité
    00:00 +23°C° 0.1 mm 5 m/s 650 mmHg 64%
    01:00 +22°C° 0.1 mm 5 m/s 650 mmHg 65%
    02:00 +22°C° 0.1 mm 5 m/s 650 mmHg 67%
    03:00 +21°C° 0.2 mm 5 m/s 651 mmHg 69%
    04:00 +21°C° 0.2 mm 5 m/s 651 mmHg 72%
    05:00 +21°C° 0.2 mm 5 m/s 651 mmHg 74%
    06:00 +21°C° 0.1 mm 5 m/s 651 mmHg 73%
    07:00 +21°C° 0.1 mm 6 m/s 652 mmHg 71%
    08:00 +21°C° 0.1 mm 6 m/s 653 mmHg 70%
    09:00 +23°C° 0 mm 6 m/s 653 mmHg 64%
    10:00 +26°C° 0 mm 6 m/s 654 mmHg 59%
    11:00 +28°C° 0 mm 6 m/s 654 mmHg 53%
    12:00 +29°C° 0 mm 5 m/s 654 mmHg 48%
    13:00 +30°C° 0 mm 4 m/s 653 mmHg 44%
    14:00 +32°C° 0 mm 4 m/s 653 mmHg 40%
    15:00 +31°C° 0 mm 3 m/s 653 mmHg 39%
    16:00 +33°C° 0 mm 3 m/s 652 mmHg 38%
    17:00 +33°C° 0 mm 3 m/s 652 mmHg 38%
    18:00 +30°C° 0 mm 2 m/s 651 mmHg 41%
    19:00 +29°C° 0 mm 2 m/s 651 mmHg 45%
    20:00 +27°C° 0 mm 2 m/s 651 mmHg 49%
    21:00 +27°C° 0.3 mm 2 m/s 651 mmHg 52%
    22:00 +26°C° 0.3 mm 2 m/s 651 mmHg 55%
    23:00 +25°C° 0.3 mm 2 m/s 651 mmHg 57%
    Voir plus